Preview of NWS' New Version of Forecast
This preview is not operational and should not be used for support decisions.

Regional Weather Roundup (RWR)

Issued by National Weather Service (NWS)

                            
000
ASUS44 KJAN 230810
RWRMS 

MISSISSIPPI HOURLY WEATHER ROUNDUP
NATIONAL WEATHER SERVICE JACKSON MS
300 AM CDT SUN JUN 23 2019

NOTE: "FAIR: INDICATES FEW OR NO CLOUDS BELOW 12,000 FEET WITH NO
SIGNIFICANT WEATHER AND/OR OBSTRUCTIONS TO VISIBILITY.

MSZ001>002-007>008-010>013-018>021-025>028-034>036-230900-
NORTHWEST MISSISSIPPI
  
CITY           SKY/WX    TMP DP  RH WIND       PRES   REMARKS
BATESVILLE       N/A     73  70  88 CALM      29.97S                  
CLARKSDALE     MOCLDY    81  79  94 S9        29.96S                  
CLEVELAND      FAIR      79  79 100 SE6       29.97R                  
GREENWOOD      FAIR      80  75  84 S8        29.97F                  
GREENVILLE     FAIR      81  76  84 S8        29.97R                  
OLIVE BRANCH     N/A     70  70 100 S5        29.97S                  
OXFORD         FAIR      70  68  94 VRB5      29.99F                  
TUNICA           N/A     73  70  88 SE5       29.97R                  
WINONA         FAIR      77  76  96 S5        29.98F                  
$$

MSZ003>006-009-014>017-022>024-029>033-037>039-230900-
NORTHEAST MISSISSIPPI
  
CITY           SKY/WX    TMP DP  RH WIND       PRES   REMARKS
ABERDEEN       FAIR      70  57  64 S7        29.99F                  
COLUMBUS AFB   FAIR      71  69  94 S7        29.98F                  
CORINTH        FAIR      70  66  88 E3        29.98S                  
GOLDN TRIANGLE FAIR      73  70  90 SE6       30.00F                  
STARKVILLE       N/A     72  70  94 S5        30.00F                  
TUPELO         FAIR      72  67  84 S5        29.98F                  
$$

MSZ040-058-230900-
CENTRAL MISSISSIPPI
  
CITY           SKY/WX    TMP DP  RH WIND       PRES   REMARKS
JACKSON INTL   FAIR      80  75  84 S8        30.01F                  
JACKSON HAWKNS FAIR      80  78  94 S10       30.02S                  
MADISON        FAIR      79  79 100 S5        30.01S                  
MERIDIAN KEY   MOCLDY    79  76  90 S8        30.02F                  
MERIDIAN NAS   FAIR      76  73  91 SW5       30.02F                  
RAYMOND        FAIR      81  81 100 S7        30.00S HX  91           
VICKSBURG VKS  SUNNY     81  79  94 S8        29.99F                  
$$

MSZ059>079-230900-
SOUTH MISSISSIPPI
  
CITY           SKY/WX    TMP DP  RH WIND       PRES   REMARKS
BROOKHAVEN     FAIR      79  77  94 E7        30.04F                  
HATTIESBURG    FAIR      80  76  87 S7        30.05F                  
LAUREL         SUNNY     80  77  91 S7        30.04F                  
MCCOMB         FAIR      79  76  90 S8        30.04F                  
NATCHEZ        FAIR      79  76  90 S10       30.00F                  
PINE BELT      FAIR      79  77  94 S6        30.06F                  
$$

MSZ080>082-230900-
COASTAL MISSISSIPPI
  
CITY           SKY/WX    TMP DP  RH WIND       PRES   REMARKS
BILOXI         MOCLDY    83  77  81 S8        30.05F HX  93           
PASCAGOULA     FAIR      76  73  91 S3        30.05F                  
GULFPORT       FAIR      83  76  79 S7        30.04F HX  91           
$$

LAZ007>009-015>016-023>026-230900-
NORTHEAST LOUISIANA
  
CITY           SKY/WX    TMP DP  RH WIND       PRES   REMARKS
BASTROP        FAIR      80  79  98 S6        29.97S                  
TALLULAH/VBURG FAIR      80  75  84 S8        29.99S                  
VIDALIA        FAIR      80  76  90 S8        29.98F                  
$$